Showing default

SARI-1, 66668

Orbit data source: Space-Track

SARI-1, 66668 is a Brazilian payload satellite in SSO that was launched on Fri, 28 Nov 2025 UTC via an FALCON 9 launch vehicle from the Air Force Western Test Range (AFWTR). Payload-class satellites include a variety of spacecraft equipped with specific instruments for various scientific and technological missions. These include communications satellites like Starlink; space stations such as the ISS; scientific satellites like the Hubble; Earth observation satellites from companies like Planet Labs, Umbra, and HawkEye 360; GPS; miniature CubeSats for education and research; and military/defense satellites.

Loading next visibility...
Identifier
66668, 2025-276C
Orbit
SSO
Country
Flag of BRBR / BRAZ
Related business
Manufacturer
SAUDSA
Mission
Operational Civil Technology
Bus & Motor
POCKETQUBE 1P, Unknown motor
Mass
0.25 kg wet, 0.25 kg dry
Launch date (UTC)
2025-11-28 (9 months ago)
Launch vehicle
FALCON 9
Launch site
Air Force Western Test Range (AFWTR)
Object type
Payload
Rocket body
Debris
Shape & HBR
Box + 2 Ant, 0.1 m
Radar Cross Section
0.006 m², Medium (>0.1 m² and < 1m²)

Expand to show TLE details & history
Last TLE update: 19 hours ago

TLE from 19 hours ago
0 SARI-1
1 66668U 25276C   26238.14548276  .00031260  00000-0  10238-2 0  9990
2 66668  97.4004 312.0596 0007675 118.3428 241.8589 15.31577166 41189
Epoch: 2026-08-26T03:29Z
TLE epoch observation values (Epoch: 2026-08-26T03:29:29.710Z)
Latitude
0.00005°
Longitude
-74.71688°
Altitude
476.695 km
Speed
7.626 km/s
True Right ascension
20h 48m 14s
True Declination
0° 00' 00"
Sunlit
Object was in full shadow at epoch
Visualization orbit readout
Latitude
Unknown
Longitude
Unknown
Altitude
Unknown
Speed
Unknown
Apparent Right ascension
Unknown
Apparent Declination
Unknown
Sunlit
N/A
Visualization observer readout
Local Sidereal Time
13:31:31
Azimuth
Unknown
Elevation
Unknown
Doppler factor
Unknown
Orbital elements
Apogee altitude
473.311 km
Perigee altitude
462.802 km
Semi-major axis
6,846.193 km
Eccentricity
0.00077
Inclination
97.4004°
RAAN
312.0596°
Arg. of periapsis
118.3428°
True anomaly
241.78138°
Mean anomaly
241.8589°
Eccentric anomaly
241.82014°
Mean motion
3.83151 °/min
Orbital period
93.96 mins
BSTAR
0.0010238
Loading maneuver chart data...
Computing Atmospheric mass density...
Loading historical data...
Loading historical data...
Loading historical data...
Loading historical data...
Loading historical data...
Loading historical data...
Loading historical data...

Documentation

Showing up to 5 results
|